Terminal Aerodrome Forecast
Issued by NWS Greer, SC

Home | Current Version | Previous Version | Text Only | Print | Product List | Glossary On
Versions: 1 2 3 4 5 6 7 8 9 10 11 12 13 14 15 16 17 18 19 20 21
000
FTUS42 KGSP 260851 AAA
TAFCLT
TAF AMD
KCLT 260851Z 2609/2706 18005KT P6SM SCT250
     FM261200 15005KT 6SM BR BKN030
     FM261500 16006KT P6SM VCSH BKN025
     FM261800 17010KT P6SM BKN015 PROB30 2618/2623 2SM -SHRA OVC007
     FM262300 19009KT P6SM BKN045 PROB30 2623/2702 4SM -SHRA OVC025=

USA.gov is the U.S. government's official web portal to all federal, state and local government web resources and services.